This is the latest recevied weather packets stored in our database for station/object KC9DNQ-3. If no packets are shown the sender has not sent any weather packets the latest 10 day(s).
| Time | Temp. | Humidity | Pressure | Rain* | Wind** | Luminosity | Snow |
|---|---|---|---|---|---|---|---|
| 1778103309 | 15° C | 35% | 1012.9 hPa | 0 mm | - | 661 W/m² | - |
| 1778103009 | 15° C | 41% | 1012.8 hPa | 0 mm | - | 691 W/m² | - |
| 1778102709 | 15° C | 39% | 1012.8 hPa | 0 mm | - | 775 W/m² | - |
| 1778102409 | 14.44° C | 38% | 1012.8 hPa | 0 mm | - | 773 W/m² | - |
| 1778102109 | 15° C | 37% | 1012.9 hPa | 0 mm | - | 759 W/m² | - |
| 1778101809 | 15° C | 38% | 1012.8 hPa | 0 mm | - | 780 W/m² | - |
| 1778101509 | 15° C | 40% | 1012.9 hPa | 0 mm | - | 770 W/m² | - |
| 1778101210 | 14.44° C | 39% | 1013 hPa | 0 mm | - | 786 W/m² | - |
| 1778100910 | 14.44° C | 39% | 1012.9 hPa | 0 mm | - | 657 W/m² | - |
| 1778100609 | 14.44° C | 37% | 1012.9 hPa | 0 mm | - | 742 W/m² | - |
| 1778100310 | 15° C | 39% | 1012.9 hPa | 0 mm | - | 599 W/m² | - |
| 1778100009 | 15° C | 39% | 1013.1 hPa | 0 mm | - | 717 W/m² | - |
| 1778099709 | 15° C | 40% | 1013 hPa | 0 mm | - | 814 W/m² | - |
| 1778099409 | 15° C | 40% | 1013 hPa | 0 mm | - | 844 W/m² | - |
| 1778099109 | 14.44° C | 39% | 1013.1 hPa | 0 mm | - | 851 W/m² | - |
| 1778098809 | 14.44° C | 38% | 1013.1 hPa | 0 mm | - | 851 W/m² | - |
| 1778098509 | 14.44° C | 40% | 1013.1 hPa | 0 mm | - | 779 W/m² | - |
| 1778098209 | 14.44° C | 39% | 1013.3 hPa | 0 mm | - | 729 W/m² | - |
| 1778097909 | 14.44° C | 39% | 1013.3 hPa | 0 mm | - | 745 W/m² | - |
| 1778097609 | 14.44° C | 39% | 1013.4 hPa | 0 mm | - | 717 W/m² | - |
| 1778097310 | 14.44° C | 40% | 1013.4 hPa | 0 mm | - | 643 W/m² | - |
| 1778097009 | 14.44° C | 42% | 1013.4 hPa | 0 mm | - | 670 W/m² | - |
| 1778096710 | 14.44° C | 39% | 1013.4 hPa | 0 mm | - | 434 W/m² | - |
| 1778096409 | 14.44° C | 40% | 1013.6 hPa | 0 mm | - | 974 W/m² | - |
| 1778096109 | 14.44° C | 40% | 1013.6 hPa | 0 mm | - | 849 W/m² | - |
* Rain latest hour (hover to see other rain measurements)
** Current wind speed in m/s (hover to see current wind gust speed)